星链-37082(STARLINK-37082)

导读 | 豆包AI

STARLINK-37082(NORAD编号68182)是美国SpaceX公司星链(Starlink)低轨互联网星座中的一颗卫星,隶属于全球规模最大的商业低轨通信星座系统。星链项目计划部署超4.2万颗低轨卫星,旨在为全球尤其是地面网络覆盖空白的偏远地区、海洋、航空提供高速低延迟互联网服务,该卫星运行在300-550公里近地轨道,采用Ku/Ka频段,为终端用户提供宽带接入服务,是星链持续扩展全球覆盖能力的组成部分。

基本信息
目录编号:
68182
目录名称:
STARLINK-37082
国际标识:
2026-050R
轨道中心:
EARTH
卫星名称:
星链-37082
卫星全名:
星链-37082(STARLINK-37082)
卫星状态:
在轨 (已飞行72 天)
发射日期:
2026-03-14 UTC
国别 :
美国 (US)
星等 :
--
轨道信息
数据来源 国际轨道数据
星历时间: 2026-05-25T01:50:20+0800
17小时前
查看轨道信息
半长轴: 6840.844km
偏心率: 0.0001038
轨道倾角: 53.160°
近地点辐角 67.084°
升交点赤经 273.048°
平近点角 293.027°
近地点: 461.996km
远地点: 463.418km
周期: 93.848分钟
每日圈数: 15.343989
详细信息
固有亮度:
5
最大亮度:
2.5
卫星平台:
Starlink V1.0
覆盖范围:
全球
运营商:
太空探索技术公司
运营商所在国:
美国
制造商(研发单位):
太空探索技术公司
制造商所在国:
美国
使用方式:
暂无
卫星简介
Starlink 计划是 SpaceX 推出的全球卫星互联网项目,通过发射低轨道卫星,为全球尤其是偏远地区提供高速、低延迟的互联网服务。自 2019 年起,Starlink 已部署数千颗卫星,旨在缩小全球数字鸿沟,推动互联网普及。该项目还为军事、航空等行业提供通信支持,带来广泛经济效益。
2D轨道图
3D轨道图
轨道高度分析图
轨道倾角分析图
轨道综合分析图
查看轨道综合分析图